Location: Hastwell
(40.7167°S, 175.7000°E)
Time: 07:39:08
(UTC+00:00)

Daily predictions for brighter satellites

Satellite Brightness Start Highest point End
(mag) Time Altitude Azimuth Time Altitude Azimuth Time Altitude Azimuth
Cosmos 2278 Rocket 4.3 13:50:49 21° S 13:50:49 21° S 13:52:45 10° SSE
Cosmos 1943 Rocket 4.0 14:01:56 27° SE 14:01:56 27° SE 14:04:30 10° SSE
Cosmos 2369 Rocket 4.4 14:03:53 18° E 14:03:53 18° E 14:06:40 10° SE
SL-16 R/B 3.8 14:25:13 10° SE 14:30:43 32° E 14:31:35 30° ENE
ATLAS 2AS CENTAUR R/B 4.0 14:31:37 26° ENE 14:32:00 26° ENE 14:37:14 10° ESE
NOSS 3-4 (A) 4.1 14:44:34 68° SW 14:44:34 68° SW 14:52:35 10° SSE
NOSS 3-4 (C) 4.1 14:44:39 69° SW 14:44:39 69° SW 14:52:41 10° SSE
Cosmos 1656 Rocket 3.9 15:08:30 62° E 15:08:30 62° E 15:13:46 10° SSE
Cosmos 1331 Rocket 4.4 15:04:18 10° SSW 15:08:47 58° SSE 15:08:47 58° SSE
ISS -0.9 15:19:56 17° SSE 15:19:56 17° SSE 15:21:02 10° SE
Cosmos 1727 Rocket 3.9 15:31:30 64° WNW 15:31:59 66° W 15:38:15 10° S
Cosmos 1153 Rocket 4.4 15:33:57 10° SSW 15:40:05 59° W 15:40:41 56° WNW
Spot 4 Rocket 4.3 15:35:10 10° NNE 15:40:17 66° ESE 15:45:28 10° S
Cosmos 2100 Rocket 3.9 15:35:06 10° S 15:41:30 89° E 15:47:44 10° N
SL-4 R/B 2.9 15:43:17 39° S 15:43:17 39° S 15:46:27 10° SE
RESURS DK-1 2.6 15:43:38 61° S 15:43:38 61° S 15:47:11 10° SSE
Cosmos 1943 Rocket 3.6 15:43:27 23° SW 15:43:27 23° SW 15:47:31 10° S
Meteor 1-19 Rocket 4.4 15:38:11 10° S 15:44:08 76° E 15:49:50 10° NNE
Okean 1 3.8 15:40:20 10° S 15:44:22 59° E 15:46:10 30° NNE
CZ-2D R/B 3.9 15:47:00 52° SW 15:47:00 52° SW 15:50:29 10° SSW
Cosmos 2369 Rocket 2.2 15:45:41 55° W 15:46:13 57° WSW 15:51:49 10° SSE
Cosmos 1408 Rocket 3.4 15:48:38 77° WSW 15:48:38 77° WSW 15:53:05 10° S
Cosmos 2016 Rocket 4.5 15:42:56 10° S 15:49:08 62° E 15:55:21 10° NNE
Meteor 1-28 Rocket 4.4 15:46:11 10° S 15:48:31 32° SSW 15:48:31 32° SSW
CZ-2C R/B 3.9 15:51:00 10° NE 15:54:51 45° ESE 15:58:45 10° S
ARIANE 5 R/B 3.2 15:57:36 35° WSW 15:57:36 35° WSW 16:01:12 10° SSW
Meteor 1-29 3.8 15:57:59 39° SSW 15:57:59 39° SSW 16:00:14 10° SSW
CZ-2C R/B 2.6 15:57:58 28° NNE 15:57:58 28° NNE 16:01:25 10° ENE
H-2A R/B 3.1 15:57:58 10° NNE 16:01:43 65° ESE 16:05:33 10° S
CZ-4C R/B 4.2 16:02:21 10° SSW 16:06:48 23° SE 16:10:37 10° E
YAOGAN 11 4.1 16:04:08 10° S 16:08:29 58° WSW 16:09:24 47° WNW
YAOGAN 6 3.8 16:14:01 27° SW 16:14:01 27° SW 16:15:54 10° SSW
Cosmos 1378 2.9 16:09:01 10° SSW 16:12:45 73° W 16:14:24 30° N
Lacrosse 5 3.5 16:09:21 10° SSW 16:14:04 34° SE 16:18:44 10° E
SL-16 R/B 3.0 16:08:33 10° S 16:14:21 41° WSW 16:16:40 30° WNW
Meteor 1-27 Rocket 4.4 16:10:58 10° SSW 16:15:48 31° W 16:15:50 31° W
Elektron 1 4.0 16:17:45 52° W 16:18:08 56° SW 16:21:04 10° SSE
Cosmos 1459 Rocket 4.1 16:14:45 10° SSW 16:20:42 49° W 16:26:40 10° NNW
Cosmos 1864 Rocket 4.4 16:15:03 10° S 16:21:15 78° W 16:27:24 10° N
Envisat 3.2 16:17:12 10° N 16:22:05 45° W 16:27:02 10° SSW
ATLAS 2AS CENTAUR R/B 2.7 16:19:04 29° WNW 16:22:22 57° SW 16:28:57 10° SSE
Cosmos 2228 Rocket 3.5 16:20:52 10° S 16:25:32 67° E 16:30:07 10° NNE
Cosmos 1515 Rocket 4.2 16:21:42 10° SSW 16:25:37 32° W 16:25:54 32° W
Meteor 1-18 Rocket 4.3 16:21:36 10° SSW 16:27:38 79° W 16:33:32 10° N
Cosmos 1805 Rocket 3.4 16:24:26 16° NNW 16:27:54 72° W 16:32:19 10° S
GPS 2-04 Rocket1 3.7 16:29:48 26° NNW 16:30:21 27° NNW 16:33:41 10° NE
Cosmos 1802 Rocket 4.2 16:24:35 10° SSW 16:30:51 53° W 16:37:05 10° NNW
Cosmos 2233 Rocket 4.1 16:26:35 10° S 16:32:56 81° E 16:39:15 10° N
Cosmos 1666 4.0 16:34:01 22° WSW 16:34:01 22° WSW 16:36:45 10° SSW
Cosmos 1818 4.1 16:29:08 10° SW 16:34:00 35° WNW 16:38:51 10° N
Cosmos 1633 Rocket 4.5 16:30:34 10° NNE 16:34:41 40° E 16:38:52 10° SSE
Cosmos 1939 Rocket 4.5 16:31:34 10° NE 16:35:10 36° ESE 16:38:48 10° S
Cosmos 1833 4.2 16:34:17 10° SSW 16:39:47 55° WNW 16:45:15 10° N
Hubble Space Telescope 3.2 16:38:47 10° N 16:39:52 11° NNE 16:40:56 10° NNE
Cosmos 1725 Rocket 4.0 16:33:45 10° SSW 16:39:55 59° W 16:46:03 10° N
Landsat 4 4.3 16:38:07 10° NNE 16:41:49 59° ESE 16:45:34 10° S
Meteor 1-31 Rocket 3.9 16:43:38 10° NNE 16:47:26 49° ESE 16:51:18 10° S
Cosmos 1666 Rocket 3.9 16:43:21 10° N 16:47:48 72° E 16:52:17 10° SSE
Cosmos 2123 Rocket 4.5 16:42:56 10° NW 16:48:54 41° WSW 16:54:56 10° S
Cosmos 1743 Rocket 4.4 16:47:02 18° NW 16:49:27 30° WSW 16:53:21 10° SSW
Helios 1A 3.8 16:49:57 10° S 16:53:44 32° WSW 16:56:56 13° NW
ISS -1.1 16:53:54 10° SW 16:55:41 13° S 16:57:27 10° SSE
PSLV R/B 4.2 16:52:10 10° NNW 16:55:56 31° W 16:59:45 10° SSW
CZ-2C R/B 3.8 16:51:57 10° NNW 16:56:17 28° W 17:00:32 10° SW
Cosmos 1867 4.3 16:55:28 15° WNW 16:59:23 36° SW 17:04:23 10° SSE
SJ-12 4.3 16:58:09 10° N 17:02:05 42° W 17:06:06 10° SSW
Sich 1 3.7 16:59:27 10° NW 17:03:24 34° WSW 17:07:26 10° S
ATLAS 3B R/B 2.6 16:59:04 10° SSW 17:05:40 84° SE 17:12:01 10° NE
Cosmos 407 Rocket 4.5 17:02:59 10° N 17:08:09 52° ENE 17:13:20 10° SSE
NOAA 12 4.3 17:03:13 10° NNE 17:08:35 84° ESE 17:14:01 10° SSW
Cosmos 1707 Rocket 3.6 17:05:46 10° SSW 17:10:18 69° W 17:14:44 10° N
Cosmos 1743 2.9 17:07:16 10° N 17:11:10 80° E 17:15:06 10° S
Meteor 1-4 Rocket 3.6 17:08:21 10° N 17:11:55 51° E 17:15:29 10° SSE
Timation 1 Rocket 4.5 17:08:49 10° SSW 17:14:56 88° ESE 17:20:58 10° NNE
CZ-2C R/B 2.9 17:09:42 10° SSE 17:15:01 72° ENE 17:20:12 10° N
Meteor 2-4 Rocket 4.4 17:10:05 10° SSW 17:15:28 36° W 17:20:50 10° NNW
Cosmos 1470 Rocket 3.9 17:14:33 10° N 17:19:00 76° E 17:23:34 10° S
USA 215 3.3 17:13:38 10° SE 17:20:17 84° SW 17:26:54 10° NW
SL-4 R/B 4.0 17:20:15 10° SW 17:22:53 17° S 17:25:26 10° SSE
SL-08 R/B 4.1 17:18:21 10° SSE 17:22:59 55° E 17:27:31 10° N
Cosmos 1536 2.8 17:18:59 10° NNW 17:23:01 76° W 17:27:06 10° S
SJ-7 4.4 17:19:21 10° N 17:23:32 73° W 17:27:43 10° SSW
Cosmos 1066 Rocket 4.3 17:17:41 10° SSW 17:23:32 68° W 17:29:21 10° N
COSMOS 2487 3.3 17:21:27 10° SW 17:23:47 21° W 17:26:06 10° NNW
CZ-4B R/B 4.4 17:20:01 10° NNW 17:24:29 29° W 17:28:55 10° SW
